RH
100 100 96 81 74 86 83 87 73 79 86 96 90 56 37 18 8 6 6 7 8 8 9 10 10 9 10 10 11 13 71 73 98 100 100 100 100 100 100 100 100 100 99 98
83 91 94 67 86 100 96 100 92 100 75 62 50 28 10 7 7 8 8 8 9 9 9 11 12 12 12 10 10 10 42 56 90 100 100 100 100 100 100 97 100 100 100 100
72 95 82 58 89 78 87 86 60 60 54 42 25 7 6 6 7 7 7 8 8 9 9 12 11 12 14 12 12 12 12 24 74 94 100 100 100 100 100 100 100 100 100 100
84 77 59 62 85 61 59 58 52 40 33 14 6 6 6 6 6 7 7 7 7 8 9 10 12 12 12 12 13 14 13 15 16 41 100 86 99 100 100 100 100 100 100 100
65 66 58 51 57 61 45 32 28 14 6 5 5 4 5 6 6 6 5 5 6 6 6 7 8 11 11 10 11 14 15 16 15 25 52 62 74 98 100 100 100 100 100 100
59 51 40 55 59 37 26 10 7 6 6 5 5 4 5 6 5 5 5 5 5 5 5 5 5 5 7 10 12 12 13 16 16 16 35 61 82 81 90 100 100 94 98 100
56 51 50 43 35 20 7 6 6 6 5 5 5 6 5 6 5 4 4 4 4 5 5 6 6 7 6 6 7 8 9 13 15 17 18 20 65 67 100 100 98 100 100 100
52 41 39 18 6 6 5 5 6 6 6 5 6 6 6 6 6 6 6 6 5 4 5 6 6 5 5 6 6 5 6 7 10 12 16 16 18 33 48 86 82 100 100 100
40 26 8 6 6 6 6 6 6 5 5 5 5 5 5 5 5 5 5 5 5 4 5 5 5 5 5 5 5 5 5 5 7 10 11 15 20 20 26 43 46 54 79 97
8 7 6 7 8 7 6 6 6 6 6 5 5 5 5 5 5 4 4 5 5 5 4 5 5 5 5 5 4 5 6 6 6 6 8 12 13 18 26 33 34 34 35 50
7 8 8 7 7 7 7 6 6 5 5 5 5 5 5 5 4 4 4 5 5 5 5 6 5 5 5 5 5 7 7 6 6 6 6 6 8 11 15 35 38 43 60 62
9 8 8 7 7 7 7 6 5 5 5 4 4 5 4 5 4 4 4 4 4 5 5 5 5 5 5 6 7 6 5 5 6 6 6 6 6 6 7 10 13 18 33 59
8 8 7 6 6 6 6 6 5 5 5 6 5 4 4 5 4 3 4 4 4 5 5 5 5 5 6 7 8 8 8 7 6 6 6 7 7 7 7 7 8 9 11 14
7 6 6 7 7 6 6 6 6 5 5 5 6 5 5 5 4 4 5 5 4 4 5 5 5 6 7 8 8 8 9 9 9 8 8 8 9 9 9 9 9 9 9 10
6 8 8 7 7 7 6 6 7 7 6 5 6 7 7 6 6 6 6 5 5 5 5 5 5 6 6 8 9 10 10 10 11 11 11 11 10 11 11 11 12 12 13 13
8 8 8 9 9 9 10 9 9 9 9 9 8 8 7 7 6 6 6 6 6 6 5 6 5 6 6 8 10 11 11 12 12 13 13 13 13 13 14 13 14 14 14 15
9 9 10 10 12 13 14 15 15 12 10 9 9 8 7 6 6 6 7 6 6 6 7 7 6 6 7 8 8 8 10 11 12 12 13 13 14 14 15 15 16 16 16 16
9 9 12 12 11 12 12 13 14 12 10 8 9 9 9 8 8 7 7 7 7 7 7 7 8 7 7 8 10 10 12 12 12 12 12 13 14 14 14 15 15 16 16 17
17 20 23 20 16 19 19 17 14 13 13 10 10 11 11 10 10 8 8 9 9 8 8 8 8 9 10 10 10 10 12 13 13 12 12 14 14 14 15 15 15 16 17 18
24 28 31 31 25 22 24 26 27 22 18 14 13 12 14 14 12 11 11 11 10 9 9 10 10 10 11 11 11 11 12 12 12 13 13 14 16 16 17 17 18 19 19 19
21 25 35 42 42 37 35 31 26 27 28 24 18 16 16 15 14 15 14 14 15 15 15 15 14 13 13 14 16 16 15 17 17 16 16 16 16 17 15 14 15 17 19 21
24 24 28 31 38 40 39 36 31 30 31 33 31 25 20 21 19 24 22 21 21 22 23 22 22 23 24 23 21 21 24 27 29 28 31 32 32 31 30 31 32 34 40 43
19 21 22 24 25 24 25 34 33 31 34 36 39 38 34 30 35 38 39 34 32 33 34 34 35 34 34 36 38 42 47 49 48 44 43 43 42 42 44 47 50 53 53 52
24 23 24 22 21 22 22 21 25 27 29 36 40 42 41 39 36 41 48 51 47 40 43 45 48 52 55 54 58 60 55 50 50 49 52 53 50 48 48 48 50 52 57 62
18 20 21 21 20 20 20 19 18 21 25 22 28 38 44 43 44 43 44 49 53 57 56 56 55 57 62 61 61 62 58 57 56 52 52 51 52 52 56 60 65 70 72 74
13 14 16 18 18 18 18 20 21 20 21 22 21 22 26 37 44 44 46 50 51 50 53 61 63 60 60 60 57 54 54 53 53 53 52 53 56 63 68 72 74 72 71 72
15 14 14 13 12 13 16 17 17 17 17 22 25 22 24 22 26 39 45 45 54 57 53 52 54 54 50 51 54 57 58 60 61 62 64 66 67 69 71 72 68 65 67 67
Wind_Speed
115 119 124 130 130 127 132 138 146 147 150 151 156 160 152 136 117 103 94 83 73 68 62 62 59 63 67 72 78 81 96 90 99 112 111 110 106 105 99 100 98 97 101 99
135 139 138 139 134 137 139 142 149 154 160 161 162 144 122 108 99 90 81 74 68 64 58 59 55 57 63 69 75 82 94 99 109 114 118 123 119 116 117 111 116 113 114 112
139 138 144 146 143 147 151 156 163 162 160 156 137 116 105 92 86 81 76 73 67 62 60 59 59 60 59 63 71 77 84 97 115 119 122 125 119 114 120 119 123 119 118 116
147 148 154 150 149 158 161 161 160 159 152 124 108 99 90 85 79 76 72 70 68 65 61 60 60 62 61 63 66 75 85 95 104 118 125 125 130 125 121 124 126 124 124 120
158 157 162 156 156 164 159 151 143 129 111 100 93 86 79 81 73 69 68 66 65 67 65 62 61 62 62 64 65 71 77 88 96 109 120 129 136 135 129 128 128 127 129 128
160 159 158 156 162 158 144 121 114 104 96 91 88 81 73 77 72 66 63 62 62 62 63 63 61 60 63 61 65 69 71 77 89 99 114 125 131 138 136 137 138 136 133 136
161 160 155 155 153 135 115 103 95 92 86 82 78 76 67 69 68 65 62 59 57 55 54 55 54 59 60 61 66 71 71 76 81 92 102 112 131 142 140 142 140 136 134 140
156 153 150 135 115 105 94 86 86 79 78 73 71 69 66 62 59 59 57 55 53 49 47 48 54 56 55 58 60 65 69 73 79 83 91 102 111 130 136 142 146 142 141 138
144 134 118 105 97 93 88 80 73 69 66 64 62 61 58 55 54 54 53 51 50 46 42 44 48 50 51 55 55 59 63 60 68 79 83 87 99 101 117 130 136 141 143 146
112 104 96 90 88 83 76 71 66 62 59 57 53 53 51 49 49 48 46 45 44 45 42 42 41 45 48 49 47 46 53 59 61 66 74 80 85 93 97 110 119 127 128 140
97 92 88 81 75 69 66 63 60 58 56 54 48 47 45 46 47 44 41 40 39 39 38 39 41 42 41 40 40 42 50 54 57 61 65 70 77 82 86 98 104 114 127 138
85 80 75 69 63 58 58 57 55 52 51 48 43 42 41 42 43 40 37 38 38 34 33 35 36 38 36 36 39 45 47 47 50 53 56 61 65 69 73 79 84 91 102 119
70 66 62 57 55 52 50 48 47 45 42 41 41 36 34 36 38 35 33 35 35 32 33 32 33 33 33 35 36 36 37 40 43 45 47 50 54 58 60 62 67 74 80 84
59 55 51 49 48 44 42 43 42 41 39 37 37 36 34 31 33 29 27 32 32 31 31 30 30 29 31 32 32 31 32 33 35 38 40 43 46 47 49 51 54 56 59 63
47 46 47 44 42 39 38 37 34 34 34 32 29 29 31 31 28 27 27 27 26 27 27 26 26 27 27 28 27 27 29 29 31 33 36 38 39 40 41 42 44 44 46 49
42 41 38 38 38 34 34 35 33 31 30 31 31 30 28 28 28 25 22 22 23 23 23 23 23 24 24 25 25 27 27 27 28 30 32 34 34 36 36 37 37 38 40 43
36 36 35 33 31 31 30 29 30 30 29 28 27 28 28 25 22 19 17 18 19 18 18 20 20 21 22 21 23 25 25 26 26 27 28 30 32 34 34 35 36 38 39 39
34 32 30 31 29 28 27 27 27 28 28 24 21 21 22 21 19 18 14 14 15 17 17 17 17 18 17 18 20 20 21 24 25 26 27 30 31 32 33 34 35 36 36 37
31 28 30 30 29 27 28 29 29 26 25 24 20 19 21 20 19 18 15 13 13 13 13 13 14 14 14 16 17 18 20 22 24 24 25 26 27 28 29 30 30 31 31 32
30 29 28 29 31 29 27 26 26 26 26 24 21 17 16 15 15 14 11 10 10 10 10 11 11 13 14 15 16 17 18 19 20 20 20 20 21 22 24 25 26 27 28 29
32 31 31 31 30 31 31 29 26 23 23 24 22 17 15 14 11 10 8 7 8 8 8 9 11 12 13 13 13 13 14 14 14 15 17 17 17 18 21 22 23 24 26 27
33 34 33 33 33 32 32 31 28 26 24 22 22 19 16 14 11 9 8 7 6 7 8 8 9 9 10 11 11 11 11 11 13 13 13 14 16 17 19 21 22 22 23 26
32 33 33 33 34 35 33 32 31 28 26 24 22 21 20 17 13 11 12 11 10 10 10 9 9 10 11 12 12 12 13 14 15 16 16 17 19 20 20 20 22 23 26 27
32 33 35 35 34 34 35 33 32 31 28 27 25 24 23 21 19 17 16 16 16 15 15 14 13 14 15 16 17 17 18 19 19 19 20 21 21 21 22 22 23 24 25 26
31 34 35 35 35 35 35 35 35 34 35 33 31 28 27 25 24 22 22 21 21 21 20 19 19 18 21 21 22 22 22 22 22 22 22 23 24 24 24 23 24 25 27 29
33 33 34 36 36 35 35 34 35 36 35 37 37 35 33 30 29 28 26 25 26 26 26 25 26 26 24 25 27 27 27 26 26 26 26 25 24 25 26 26 28 30 31 33
39 38 38 38 38 37 37 38 37 37 35 34 38 37 40 37 35 33 31 29 28 30 30 29 29 29 28 28 28 28 28 28 28 27 27 26 26 28 29 30 32 33 34 36
Wind_Direction
288 288 286 286 289 291 291 291 291 294 294 296 296 297 299 297 294 291 288 285 282 277 271 266 260 251 246 244 239 235 223 222 213 223 228 227 228 229 228 226 227 231 238 242
285 286 287 289 292 292 291 291 292 293 294 297 299 299 295 293 291 289 286 283 281 276 267 262 256 251 247 243 239 235 225 224 216 222 222 228 230 227 231 228 232 237 241 245
283 283 285 289 290 291 291 291 295 297 297 299 298 294 293 292 290 288 286 283 277 271 266 263 257 248 244 242 238 235 233 226 219 221 224 224 224 225 228 231 235 239 242 243
285 286 288 290 291 293 294 296 298 299 298 296 294 291 291 290 286 283 280 279 278 275 271 264 258 255 249 243 240 235 232 231 231 225 221 223 222 223 229 229 233 238 240 243
285 287 289 292 293 294 297 299 299 297 295 295 293 291 293 289 283 279 278 274 272 272 268 264 261 256 253 248 241 238 236 233 232 230 224 224 224 225 227 231 234 235 239 242
287 290 292 295 295 296 297 299 295 294 293 293 291 291 291 288 289 287 283 279 276 273 272 269 265 260 254 248 247 244 238 236 236 233 230 226 227 227 228 231 233 235 237 240
289 293 296 296 296 297 297 293 294 293 291 290 289 289 287 285 285 283 281 279 274 268 268 268 264 259 255 251 247 241 238 235 234 235 233 233 229 228 228 231 232 234 237 238
291 294 295 295 295 293 293 294 291 290 290 290 291 288 287 286 284 285 284 283 280 278 273 266 261 261 257 251 248 248 244 240 236 235 236 236 233 230 233 230 232 233 236 239
292 292 292 292 294 296 295 292 290 289 288 286 284 284 284 284 280 278 279 280 279 276 269 266 262 259 256 254 251 245 245 246 241 240 239 238 240 238 238 236 237 238 238 240
291 291 293 294 293 291 292 293 292 290 289 287 287 285 285 283 280 278 279 277 277 277 273 268 264 259 256 256 255 251 247 243 242 240 240 241 242 241 241 243 243 243 245 242
291 293 292 291 291 292 293 291 291 292 290 289 288 286 284 282 279 279 277 275 273 272 270 265 263 261 258 255 251 245 242 241 240 240 239 239 241 243 242 244 245 246 248 247
289 289 289 289 290 291 290 292 291 289 288 286 285 285 285 283 282 282 282 279 276 275 269 265 261 261 258 252 248 247 247 245 243 244 244 243 243 244 244 244 244 244 245 248
286 285 286 288 290 291 289 286 285 286 287 287 287 285 282 281 281 283 282 280 278 275 270 264 259 257 255 252 249 251 252 252 248 246 246 247 246 245 244 244 244 245 246 247
282 284 286 288 288 289 288 288 288 289 291 292 294 293 290 285 284 287 283 275 274 271 269 266 262 256 252 251 250 250 251 248 245 245 245 244 244 245 245 244 244 244 244 245
282 286 287 288 288 290 291 291 292 293 293 293 292 292 291 291 287 282 277 277 275 270 267 264 259 255 250 250 250 248 245 243 244 246 246 247 246 246 245 245 245 244 245 244
281 281 282 283 284 286 290 291 293 295 296 296 295 296 294 291 290 290 286 279 273 271 267 265 260 255 249 246 246 244 245 243 241 242 244 247 249 249 249 247 247 244 242 241
276 278 279 280 284 287 288 291 291 291 293 294 296 296 294 291 292 294 286 280 274 268 269 263 257 254 250 247 246 245 245 245 246 245 243 242 241 240 241 242 243 243 243 244
277 278 279 280 277 278 280 283 286 289 290 291 295 298 292 293 297 294 290 285 281 275 270 263 255 250 247 245 244 245 248 251 250 248 245 243 242 244 244 244 244 245 247 248
277 278 281 285 284 287 290 292 292 295 296 294 294 297 299 292 298 294 292 288 278 269 264 263 260 252 245 238 235 235 235 238 241 240 239 237 240 241 244 248 249 249 251 253
269 273 275 279 282 283 287 289 293 294 296 296 292 296 304 299 299 291 287 283 274 266 256 250 246 242 243 237 234 231 231 232 233 235 238 240 242 244 245 248 250 253 254 256
271 271 269 274 278 281 283 283 284 285 291 294 293 290 298 301 294 295 282 274 274 274 264 254 248 242 238 234 232 231 233 236 238 241 243 245 251 254 256 259 260 261 261 263
271 275 273 271 271 271 273 277 279 278 278 282 289 288 289 296 299 286 275 261 259 251 249 244 242 242 236 234 236 235 236 241 248 251 251 254 256 260 263 264 265 267 269 271
279 279 278 274 272 271 269 265 268 270 270 270 272 277 281 280 283 278 274 268 255 247 250 250 250 250 247 244 245 247 251 252 256 261 263 266 267 267 267 268 269 269 269 270
278 276 276 276 275 273 272 269 263 263 261 261 261 264 265 270 268 262 258 262 265 256 253 253 248 246 247 246 247 251 255 259 262 263 265 267 269 273 276 273 272 273 274 275
281 281 281 281 281 279 275 274 271 266 265 262 256 254 256 258 259 260 257 253 253 255 260 262 262 259 251 254 256 258 262 264 265 267 268 271 273 275 276 274 272 272 274 278
283 279 278 276 276 276 277 277 276 273 270 267 264 260 254 251 254 255 253 254 255 254 253 254 256 257 255 256 257 259 262 265 267 269 270 270 270 271 271 273 274 277 279 282
286 285 283 279 277 275 274 274 273 271 268 265 266 263 262 260 254 251 253 251 251 255 257 257 258 260 261 260 261 262 263 265 267 269 271 272 271 272 275 277 279 282 284 286